Flag for Namibia Weather past 2 weeks in Swakopmund, Namibia

Now
63 °F

Mild.


Feels Like: 63 °F
Forecast: 53 / 70 °F
Wind: 12 mph from West

Location: Walvis Bay

Current Time: Aug 23, 2014 at 5:14:53 PM

Latest Report: Aug 23, 2014 at 4:00 PM


Visibility: N/A

Pressure: 30.01 "Hg

Humidity: 56%

Dew point: 46 °F

Location of SwakopmundLocation

Historic Weather in Swakopmund — Graph

°F

Swakopmund temperature yesterday

Maximum temperature yesterday: 68 °F (at 3:00 PM)
Minimum temperature yesterday: 43 °F (at 5:00 AM)
Average temperature yesterday: 53 °F

Past Weeks' High & Low Weather Summary

 TemperatureHumidityPressure
High72 °F (Aug 9, 2:00 PM)100% (Aug 12, 3:00 AM)30.45 "Hg (Aug 12, 3:00 AM)
Low43 °F (Aug 13, 5:00 AM)13% (Aug 9, 10:00 AM)29.92 "Hg (Aug 16, 2:00 PM)
Average55 °F75%30.08 "Hg
* Reported Aug 8 4:00 PM — Aug 23 4:00 PM, Swakopmund, Weather by CustomWeather, © 2014

Note: Actual official high and low records may vary slightly from our data, if they occured in-between our weather recording intervals... More about our weather records

Advertising

Swakopmund weather history for previous 24 hours

 ConditionsComfort  
Time TempWeatherWind HumidityBarometerVisibility
4:00 PM
Aug 23
63 °FMild.12 mph56%30.01 "HgN/A
3:00 PM64 °FMild.13 mph52%30.01 "HgN/A
2:00 PM64 °FMild.15 mph52%30.04 "HgN/A
1:00 PM68 °FPartly sunny.7 mph43%30.04 "HgN/A
12:00 PM64 °FPassing clouds.3 mph49%30.07 "HgN/A
10:00 AM52 °FPartly sunny.5 mph88%30.12 "HgN/A
6:00 AM48 °FCool.3 mph94%30.09 "HgN/A
5:00 AM48 °FCool.5 mph94%30.09 "HgN/A
4:00 AM48 °FCool.5 mph94%30.09 "HgN/A
3:00 AM48 °FCool.5 mph94%30.09 "HgN/A
2:00 AM50 °FCool.6 mph94%30.09 "HgN/A
1:00 AM50 °FCool.7 mph94%30.12 "HgN/A
12:00 AM50 °FCool.6 mph94%30.12 "HgN/A
11:00 PM
Aug 22
52 °FCool.5 mph88%30.09 "HgN/A
10:00 PM48 °FCool.6 mph87%30.09 "HgN/A
9:00 PM50 °FCool.2 mph88%30.09 "HgN/A
8:00 PM52 °FCool.3 mph82%30.07 "HgN/A
7:00 PM55 °FClear.6 mph77%30.07 "Hg10 mi
6:00 PM59 °FCool.6 mph63%30.04 "HgN/A
5:00 PM63 °FMild.6 mph56%30.04 "HgN/A
Weather by CustomWeather, © 2014

See weather overviewHow to use our weather pages